Content
SEND FEEDBACK

Daily
Averages
Monthly
Summary
United States of America

OKOLONA, MISSISSIPPI


Home > North America > United States > Mississippi
Elevation: 33 feet     Latitude: 34 00N     Longitude: 088 43W

WEATHER
 
SELECT A DAY
Number of Records: 58,331;   Date Range: 1/10/12 - 8/29/14
 
SHARE

PRINT THIS DATA

[ ← Previous Day ]
WEATHER ALMANAC - JANUARY 23, 2013
[ Next Day → ]
[ °C ]   °F
Weather ElementAverageHighLow
Temperature42.4 °F53.6 °F (3:35 pm)33.8 °F (7:35 am)
Dewpoint38.8 °F46.4 °F (3:35 pm)32 °F (7:35 am)
Humidity87.3 %100 % (1:15 am)76 % (10:55 am)
Barometer30.31 in30.39 in (8:55 am)30.22 in (8:35 pm)
Wind Speed2.2 mph9.2 mph (1:15 pm)
Weather ElementAverage
Visibility9.1 mi
Wind DirectionENE (60.5 °)

Weather ElementTotal
Precipitation---
Heating Degree Days21.3 (Base 65)
Averaged from 64 records on January 23, 2013
WEATHER CONDITIONS BREAKOUT
WIND DIRECTION BREAKOUT
WEATHER BY HOUR - JANUARY 23, 2013
[ °C ]   °F
Local TimeTemperatureDewpointHumidityBarometerVisibilityWind DirectionWind SpeedGust SpeedPrecipitationEventsConditions
12:35 AM37.4 °F35.6 °F93 %30.36 in10.0 miCalmOvercast
12:55 AM37.4 °F35.6 °F93 %30.36 in10.0 miCalmMostly Cloudy
1:15 AM35.6 °F35.6 °F100 %30.36 in10.0 miNorthMostly Cloudy
1:35 AM35.6 °F33.8 °F93 %30.36 in10.0 miCalmOvercast
1:55 AM37.4 °F35.6 °F93 %30.36 in10.0 miCalmOvercast
2:15 AM37.4 °F35.6 °F93 %30.36 in10.0 miCalmOvercast
2:35 AM37.4 °F35.6 °F93 %30.36 in10.0 miCalmOvercast
2:55 AM37.4 °F35.6 °F93 %30.36 in10.0 miCalmMostly Cloudy
3:15 AM37.4 °F35.6 °F93 %30.36 in10.0 miCalmMostly Cloudy
3:35 AM37.4 °F35.6 °F93 %30.36 in10.0 miCalmOvercast
4:15 AM39.2 °F35.6 °F87 %30.36 in10.0 miCalmMostly Cloudy
4:35 AM37.4 °F35.6 °F93 %30.37 in10.0 miCalmMostly Cloudy
5:15 AM37.4 °F35.6 °F93 %30.36 in10.0 miCalmOvercast
5:35 AM37.4 °F35.6 °F93 %30.37 in10.0 miCalmOvercast
5:55 AM39.2 °F35.6 °F87 %30.37 in10.0 miCalmOvercast
6:15 AM37.4 °F35.6 °F93 %30.37 in10.0 miCalmOvercast
6:35 AM37.4 °F33.8 °F87 %30.38 in10.0 miCalmMostly Cloudy
6:55 AM35.6 °F33.8 °F93 %30.38 in10.0 miCalmOvercast
7:15 AM35.6 °F33.8 °F93 %30.38 in9.0 miCalmScattered Clouds
7:35 AM33.8 °F32.0 °F93 %30.38 in8.0 miCalmScattered Clouds
7:55 AM37.4 °F35.6 °F93 %30.37 in8.0 miCalmMostly Cloudy
8:15 AM39.2 °F37.4 °F93 %30.38 in9.0 miCalmOvercast
8:35 AM39.2 °F37.4 °F93 %30.38 in9.0 miSouth (170°)3.5 mphMostly Cloudy
8:55 AM41.0 °F37.4 °F87 %30.39 in9.0 miSSE (150°)3.5 mphMostly Cloudy
9:15 AM42.8 °F37.4 °F81 %30.39 in9.0 miSouth (180°)5.8 mphOvercast
9:35 AM42.8 °F39.2 °F87 %30.39 in9.0 miSouth (190°)4.6 mphMostly Cloudy
9:55 AM44.6 °F39.2 °F81 %30.39 in8.0 miSouth (190°)6.9 mphMostly Cloudy
10:15 AM46.4 °F41.0 °F81 %30.39 in9.0 miSouth (180°)6.9 mphOvercast
10:55 AM50.0 °F42.8 °F76 %30.38 in9.0 miSouth (170°)6.9 mphMostly Cloudy
11:15 AM51.8 °F44.6 °F76 %30.37 in10.0 miSouth (190°)6.9 mphMostly Cloudy
11:35 AM50.0 °F42.8 °F76 %30.35 in8.0 miSSW (210°)5.8 mphOvercast
11:55 AM50.0 °F42.8 °F76 %30.34 in8.0 miSouth (180°)5.8 mphOvercast
12:15 PM48.2 °F42.8 °F82 %30.32 in9.0 miSouth (180°)5.8 mphOvercast
12:35 PM50.0 °F44.6 °F82 %30.31 in9.0 miSouth (180°)8.1 mphOvercast
12:55 PM48.2 °F42.8 °F82 %30.30 in9.0 miSouth (180°)8.1 mphOvercast
1:15 PM50.0 °F44.6 °F82 %30.29 in8.0 miSouth (170°)9.2 mphOvercast
1:55 PM50.0 °F44.6 °F82 %30.27 in9.0 miSouth (180°)5.8 mphOvercast
2:15 PM51.8 °F44.6 °F76 %30.27 in8.0 miSSE (160°)3.5 mphOvercast
2:35 PM51.8 °F44.6 °F76 %30.27 in9.0 miSouth (180°)5.8 mphOvercast
2:55 PM51.8 °F44.6 °F76 %30.26 in9.0 miSouth (170°)4.6 mphOvercast
3:35 PM53.6 °F46.4 °F77 %30.25 in8.0 miSSE (160°)5.8 mphPartly Cloudy
3:55 PM53.6 °F46.4 °F77 %30.25 in9.0 miSouth (180°)5.8 mphClear
4:15 PM53.6 °F46.4 °F77 %30.24 in8.0 miSouth (170°)4.6 mphClear
4:35 PM51.8 °F44.6 °F76 %30.24 in9.0 miSSE (150°)3.5 mphClear
4:55 PM51.8 °F44.6 °F76 %30.24 in8.0 miCalmPartly Cloudy
5:15 PM48.2 °F42.8 °F82 %30.24 in8.0 miCalmClear
5:35 PM44.6 °F39.2 °F81 %30.24 in8.0 miCalmClear
6:15 PM42.8 °F39.2 °F87 %30.25 in10.0 miCalmPartly Cloudy
6:55 PM42.8 °F39.2 °F87 %30.24 in10.0 miNorthOvercast
7:15 PM42.8 °F39.2 °F87 %30.24 in10.0 miCalmMostly Cloudy
7:35 PM41.0 °F37.4 °F87 %30.23 in10.0 miCalmScattered Clouds
7:55 PM39.2 °F37.4 °F93 %30.23 in9.0 miCalmMostly Cloudy
8:15 PM39.2 °F37.4 °F93 %30.23 in9.0 miCalmScattered Clouds
8:35 PM39.2 °F37.4 °F93 %30.22 in8.0 miCalmClear
8:55 PM39.2 °F37.4 °F93 %30.23 in8.0 miCalmClear
9:15 PM37.4 °F35.6 °F93 %30.23 in9.0 miNorthScattered Clouds
9:35 PM37.4 °F35.6 °F93 %30.23 in9.0 miNorthScattered Clouds
9:55 PM39.2 °F37.4 °F93 %30.23 in9.0 miNorthScattered Clouds
10:15 PM39.2 °F37.4 °F93 %30.24 in10.0 miCalmScattered Clouds
10:35 PM39.2 °F37.4 °F93 %30.23 in9.0 miCalmScattered Clouds
10:55 PM39.2 °F37.4 °F93 %30.23 in9.0 miCalmScattered Clouds
11:15 PM39.2 °F37.4 °F93 %30.23 in8.0 miCalmMostly Cloudy
11:35 PM41.0 °F39.2 °F93 %30.23 in8.0 miCalmMostly Cloudy
11:55 PM42.8 °F39.2 °F87 %30.23 in8.0 miCalmMostly Cloudy
Hourly data recorded from KM40, located miles away from Okolona, Mississippi







STORIES FROM OUR PARTNERS